Presure
510 484 469 466 507 499 509 508 498 500 450 405 381 375 334 293 288 257 261 267 261 189 232 224 218 187 194 186 226 181 181 176 184 193 207 204 211 233 241 204 216 225 187 186
481 450 446 468 494 482 490 487 503 530 520 432 402 385 347 311 291 280 268 246 258 202 233 229 209 194 203 187 188 193 188 191 182 174 191 196 209 205 224 237 253 219 219 223
460 458 477 473 505 490 492 473 488 499 527 507 467 407 368 327 300 288 272 224 254 258 200 222 207 175 219 193 179 188 196 199 199 199 198 204 206 212 209 221 216 229 238 216
480 489 482 497 465 465 472 485 502 518 504 500 522 478 380 336 303 292 278 151 95 88 115 187 187 215 185 182 210 213 172 183 184 180 203 194 189 192 206 217 227 229 219 215
514 498 487 452 421 420 428 438 454 467 481 492 524 498 400 347 313 297 281 255 247 100 239 171 199 173 209 219 198 167 199 217 182 202 173 185 189 187 184 190 201 202 196 215
441 429 411 405 403 411 410 405 415 436 446 486 518 500 562 375 348 306 289 259 247 242 234 228 153 170 162 190 203 190 188 198 179 166 182 184 193 202 190 190 192 192 208 217
406 411 388 385 385 395 414 428 436 451 437 455 477 537 573 632 358 312 295 263 249 242 231 191 221 223 185 164 182 162 198 182 223 205 200 190 173 187 194 206 193 195 199 195
392 378 382 389 396 401 394 410 426 417 413 401 432 163 472 537 443 318 297 269 251 242 241 208 197 212 180 211 173 212 198 193 184 176 178 178 195 172 204 212 204 206 202 201
357 352 347 350 349 344 358 357 363 371 393 384 383 422 445 492 532 358 297 281 245 242 235 224 227 155 212 165 208 184 211 215 179 206 184 187 177 209 177 185 189 196 198 198
349 335 332 328 332 336 336 343 345 352 358 189 374 399 420 288 541 474 317 289 261 243 235 236 235 222 216 222 169 203 209 188 213 224 179 204 204 206 212 219 195 182 183 182
337 336 321 327 342 353 350 349 348 338 349 341 379 396 408 451 369 231 287 300 270 247 241 238 234 231 218 192 120 178 221 217 193 197 184 184 169 193 211 215 169 208 189 182
346 337 339 311 316 320 321 322 311 329 344 343 361 373 373 89 506 479 364 267 208 254 243 237 234 83 231 220 198 185 185 186 203 207 168 183 161 202 188 223 208 193 199 182
324 326 309 314 313 306 308 311 319 337 352 346 350 375 307 72 423 163 152 143 235 261 247 138 234 234 234 220 229 187 185 198 196 200 200 202 182 178 181 184 183 202 210 201
335 314 310 312 303 299 306 318 321 323 343 334 356 368 359 358 385 398 437 363 313 279 251 245 241 231 175 235 217 229 181 198 192 209 203 184 189 184 187 180 195 200 203 204
321 311 311 305 295 305 306 314 325 333 340 343 380 350 342 332 401 385 336 382 375 296 263 250 241 244 230 237 221 210 221 212 215 172 208 218 171 200 198 207 202 187 187 190
313 301 291 311 280 293 305 324 335 336 376 363 331 320 309 317 342 389 394 330 375 276 287 263 251 235 245 230 234 225 218 214 231 228 211 229 164 207 199 185 207 183 211 213
309 292 298 284 289 285 304 305 332 356 402 331 312 308 288 285 328 325 350 280 302 334 307 228 269 252 246 245 231 232 232 220 214 216 218 228 232 227 211 207 202 194 194 214
314 293 288 292 267 277 284 289 307 332 364 306 301 283 283 286 284 300 291 262 189 270 305 360 366 265 251 247 241 235 231 229 227 223 218 210 219 223 228 217 211 210 213 210
310 299 279 293 299 276 277 273 276 294 351 285 277 270 111 302 282 297 293 279 282 278 316 276 361 371 273 251 251 244 236 233 231 232 236 228 223 211 206 212 223 219 222 200
315 294 290 290 273 272 269 271 274 274 286 328 281 276 274 296 272 273 249 290 287 297 318 295 314 350 311 281 244 251 247 241 240 239 230 232 234 234 217 214 212 210 218 220
315 298 289 277 273 268 264 259 267 261 242 271 269 271 278 274 238 292 287 276 295 317 303 180 235 298 340 358 273 261 260 255 250 247 245 244 236 233 230 224 225 231 229 223
320 301 288 275 282 264 266 263 259 265 262 271 275 271 257 263 281 301 294 278 288 289 297 298 297 328 191 142 343 325 339 318 310 262 260 254 245 244 242 237 232 223 224 218
319 302 289 289 279 287 266 269 257 267 265 269 249 265 268 256 270 283 276 271 274 282 285 166 298 276 279 342 299 305 334 339 322 314 306 301 266 251 249 243 245 240 235 228
360 304 293 279 282 281 266 272 258 258 259 239 259 257 274 267 269 271 263 269 267 289 295 224 262 301 306 252 299 273 279 285 342 302 301 305 326 338 342 319 323 284 272 266
415 302 301 276 282 274 265 275 251 252 260 269 263 241 251 255 274 261 319 266 286 283 294 299 299 281 297 245 304 308 295 256 260 264 260 273 290 303 305 305 305 305 301 297
461 323 305 296 290 267 275 272 271 264 254 263 269 270 263 283 294 210 269 262 268 276 295 276 286 291 296 281 315 324 300 276 298 310 316 304 290 289 287 286 282 279 279 287
Wind_Speed
58 55 53 50 39 42 45 51 71 78 88 103 101 103 102 114 115 104 99 101 98 95 104 105 99 91 86 82 70 85 83 79 79 72 65 66 64 56 61 72 71 70 69 67
57 57 54 47 40 44 41 49 51 51 66 99 106 105 103 107 107 103 98 101 102 99 108 108 102 97 88 89 83 82 82 78 80 80 76 73 69 70 59 57 60 69 69 70
58 54 47 44 35 36 34 39 40 47 43 60 89 107 105 104 108 106 98 93 105 101 107 103 102 97 97 90 89 84 77 75 75 73 72 67 65 60 62 59 64 62 61 71
48 44 39 25 19 22 16 18 23 28 37 45 50 89 109 108 111 109 101 56 46 41 51 103 94 97 84 94 89 76 88 84 84 82 75 73 71 70 67 60 57 57 65 66
34 34 23 16 15 14 13 14 14 17 24 32 35 59 100 112 114 110 105 110 112 41 115 87 102 101 96 92 89 86 87 78 87 77 78 76 73 73 69 65 63 63 61 57
28 24 28 26 23 20 17 15 16 17 19 24 21 35 44 108 112 110 106 113 116 115 118 121 83 84 84 94 90 96 90 86 90 77 84 80 74 69 70 69 66 65 59 57
33 30 31 31 30 32 27 22 15 15 14 8 16 19 26 29 109 110 109 115 119 121 123 106 119 116 96 79 96 78 93 94 83 82 79 78 75 75 73 72 70 65 64 63
33 31 36 34 32 29 29 23 26 19 18 12 20 21 5 5 66 115 113 119 125 127 124 119 104 112 108 107 82 102 92 89 95 82 82 83 78 79 70 70 71 69 69 67
27 28 33 40 40 35 34 30 25 25 26 16 15 18 4 7 21 114 120 124 124 130 129 123 125 78 111 84 103 99 98 97 91 84 91 86 86 76 80 76 74 69 69 68
25 25 28 28 34 28 25 23 24 20 24 8 32 22 5 8 18 63 117 117 129 134 133 130 124 118 111 114 87 96 97 88 93 95 92 81 80 78 77 75 78 77 75 72
21 22 20 27 26 22 21 22 27 25 33 18 28 18 14 9 18 21 79 117 124 134 131 130 126 123 113 106 54 88 107 101 86 90 91 86 81 81 78 79 73 75 79 77
22 25 34 24 34 37 31 28 20 16 31 30 28 23 17 18 26 37 95 79 79 132 132 134 128 22 119 111 103 97 92 89 89 94 86 80 74 80 80 81 76 80 77 80
15 22 18 26 35 29 23 26 27 21 22 30 24 21 24 7 23 14 19 30 83 133 133 49 124 122 117 111 115 99 94 90 92 89 89 87 90 88 86 83 82 75 78 75
17 15 20 26 32 31 33 31 24 25 24 28 24 33 32 28 37 32 33 83 105 121 129 128 124 121 78 114 106 112 95 95 89 97 93 91 88 86 87 85 79 77 77 76
15 18 26 29 30 34 35 28 27 29 27 31 35 40 44 29 31 31 67 63 75 109 123 125 125 119 115 113 112 100 110 104 105 90 98 101 83 85 84 88 85 81 80 78
13 17 16 30 20 33 37 35 31 35 29 37 49 48 46 28 22 32 34 67 52 86 110 120 118 111 116 115 113 115 112 105 104 105 100 104 66 96 87 89 89 83 89 87
14 4 25 22 31 31 41 44 44 37 26 62 60 57 50 40 30 32 21 70 71 68 90 79 108 111 115 115 115 114 116 112 105 105 103 101 98 101 100 97 92 83 81 92
19 8 14 27 6 37 42 51 51 48 47 62 62 54 46 26 48 44 52 47 46 71 70 51 59 107 112 116 118 118 118 118 115 109 105 98 100 99 102 100 94 92 95 91
20 21 3 24 37 29 38 42 46 46 45 46 42 43 16 39 46 41 49 61 62 65 51 43 43 50 109 112 115 119 117 116 113 111 112 113 107 95 85 89 100 99 100 83
27 16 18 25 18 25 28 34 38 39 39 42 46 41 38 39 47 48 47 46 49 46 36 55 55 40 80 103 105 114 117 118 116 116 109 109 111 111 97 95 91 90 98 100
26 26 25 16 17 16 23 26 33 28 27 25 29 39 37 36 30 30 36 38 29 28 37 27 52 59 44 49 98 104 109 112 113 114 114 113 110 110 108 99 98 101 101 100
33 35 33 17 32 11 26 30 28 28 29 24 29 27 30 29 21 22 30 34 33 34 33 36 43 36 42 25 55 67 66 84 88 108 108 109 109 111 111 108 108 102 102 92
38 39 37 39 37 45 20 35 28 31 30 27 37 37 32 34 29 29 33 38 38 38 41 35 42 55 57 41 53 59 63 61 72 75 80 85 100 101 101 100 104 105 103 99
40 42 41 29 43 47 21 42 25 28 31 23 36 36 25 34 30 31 37 33 39 27 36 33 36 41 41 50 35 49 52 55 58 67 66 65 58 56 56 69 68 88 92 94
20 34 46 27 47 36 25 47 19 18 35 43 42 33 34 34 28 33 16 35 27 20 29 29 33 37 34 32 39 41 43 48 51 55 57 59 57 52 49 51 50 52 55 58
19 60 50 53 60 32 41 47 41 35 24 36 39 37 23 22 18 9 31 34 32 33 24 30 27 28 30 33 31 36 42 45 40 46 42 51 51 51 50 49 48 50 51 50
Wind_Direction
315 311 301 293 280 271 267 263 255 249 232 228 229 230 229 235 239 237 232 230 225 215 221 226 226 220 215 220 220 229 231 235 234 229 231 233 237 237 236 237 238 238 241 241
318 312 307 299 286 278 270 266 263 258 246 235 223 222 221 224 229 230 224 225 224 220 220 221 223 219 221 217 220 221 229 226 235 236 232 232 232 235 236 237 237 238 240 240
323 314 312 313 299 289 287 280 270 267 253 247 233 220 215 215 221 224 217 219 220 217 221 220 219 225 226 215 219 223 221 219 220 227 228 227 230 232 235 236 237 236 235 240
327 325 327 330 336 319 328 283 284 278 266 254 244 235 212 209 214 217 212 217 237 237 229 211 217 223 226 217 223 219 230 226 228 236 225 231 234 234 233 234 233 233 237 241
342 351 8 20 17 355 340 343 323 292 280 271 251 247 212 208 210 211 207 207 212 233 213 219 217 221 222 220 219 227 217 218 228 222 235 236 237 239 240 239 240 242 245 241
14 26 22 15 1 0 352 337 313 295 287 286 290 259 260 208 205 208 205 204 208 211 212 213 220 219 228 215 218 219 223 222 227 230 230 233 233 233 239 241 240 239 242 241
11 23 30 28 16 359 5 359 21 354 307 358 353 279 282 272 204 205 203 202 205 210 211 219 214 216 214 232 220 229 216 222 225 226 227 230 237 236 238 237 241 244 244 244
32 44 47 43 35 40 45 40 37 61 51 38 54 218 238 127 202 200 201 199 203 208 209 211 209 215 217 219 227 223 216 219 221 229 228 231 230 238 231 231 236 240 244 246
44 50 47 51 49 50 55 58 63 65 72 78 72 41 18 287 193 200 200 199 201 206 211 212 213 229 217 228 219 219 222 226 226 225 228 226 233 235 240 238 240 240 242 244
36 40 50 50 49 51 65 71 69 70 77 60 76 43 14 212 203 193 201 200 200 204 209 211 211 216 218 217 230 217 221 216 225 230 225 227 230 231 233 238 242 242 244 246
32 42 38 53 48 53 57 68 74 75 68 78 67 69 61 331 197 192 204 201 200 206 209 210 211 211 217 213 225 223 223 223 215 220 228 224 232 225 240 240 240 242 241 246
55 53 70 67 68 61 62 63 57 57 80 78 53 106 89 202 153 161 200 201 201 204 208 213 213 210 213 217 213 214 225 216 224 228 229 227 231 230 230 239 241 237 241 244
45 81 56 60 65 67 65 71 65 57 63 84 71 100 113 255 118 218 199 216 205 203 209 217 216 215 213 219 216 219 216 222 222 226 228 229 224 231 231 231 232 241 245 247
94 74 69 73 75 73 61 65 68 82 82 94 72 111 111 85 134 146 163 198 200 202 208 210 213 218 214 214 223 217 217 220 221 229 228 225 226 232 229 234 236 240 244 248
99 81 77 79 77 69 64 56 60 69 67 73 114 115 105 117 135 158 191 190 200 204 206 211 215 214 220 214 217 226 224 227 228 227 233 230 233 235 236 242 242 237 239 242
114 90 70 75 77 76 65 56 59 55 55 93 112 113 109 98 108 126 145 194 190 205 206 210 213 216 216 222 217 223 227 230 224 226 233 229 239 237 237 234 244 238 247 249
133 72 93 92 87 79 69 71 59 60 76 109 110 115 133 150 107 127 142 194 198 202 208 213 212 216 217 218 224 222 223 229 232 234 235 230 230 232 237 240 241 238 241 249
151 141 119 109 36 91 83 77 80 81 108 115 113 127 129 152 158 159 173 190 198 202 204 203 201 214 216 218 221 224 226 229 230 232 236 236 238 236 236 241 245 248 249 252
163 152 217 121 110 103 95 98 91 93 104 134 139 144 194 148 159 161 179 193 197 201 198 198 180 191 215 217 219 223 227 230 232 232 231 235 237 241 242 245 244 249 249 250
171 184 162 138 142 109 110 103 106 98 91 129 143 147 156 151 171 179 188 190 197 197 189 200 199 187 210 216 219 223 226 231 233 234 238 238 237 236 244 246 247 249 252 253
186 176 172 168 158 137 123 122 106 110 152 116 142 149 161 166 179 177 184 194 186 181 195 202 204 204 193 199 220 223 226 230 233 234 236 237 239 241 244 246 248 248 250 252
191 178 175 186 155 155 135 129 132 142 136 138 159 161 158 170 157 153 155 173 166 176 177 186 196 191 213 212 201 213 215 222 225 233 235 236 238 241 244 245 247 250 252 253
197 190 181 173 168 154 161 159 153 157 145 138 163 150 156 167 165 175 166 176 184 182 183 195 195 207 209 196 207 212 208 212 216 222 227 231 236 239 242 243 244 247 249 251
204 196 193 202 180 171 183 169 164 168 160 156 170 174 180 176 178 163 176 183 190 184 193 201 196 195 202 214 201 217 218 218 209 219 223 226 223 222 223 232 235 244 246 248
229 202 200 212 190 185 192 178 180 170 177 176 184 168 169 174 187 179 194 187 175 186 190 193 194 197 199 206 204 201 207 222 225 226 227 229 229 227 229 230 232 234 236 237
286 197 200 196 189 203 192 190 190 190 185 189 189 193 189 216 214 195 180 191 193 198 188 194 189 188 189 195 191 185 199 214 203 205 204 213 219 223 225 229 229 231 235 236